N5RML-1 Weather Reports


Display with metric or nautical units.
time (UTC)temp
F
wind
direction
speed
MPH
gust
MPH
rain 1hr
in
rain 24hr
in
rain mn
in
humidity
%
barometer
mb
20260502202551 76 319 6.0 8.0 0.00 1.36 0.47 44 1016.9
20260502201538 76 342 5.0 8.0 0.00 1.42 0.47 46 1017.0
20260502200547 76 312 6.0 10.0 0.00 1.70 0.47 48 1017.2
20260502195534 75 5 6.0 10.0 0.00 2.29 0.47 49 1017.2
20260502194524 76 352 6.0 9.0 0.00 2.41 0.47 51 1017.3
20260502193532 75 319 6.0 9.0 0.00 2.44 0.47 53 1017.4
20260502192521 75 14 6.0 10.0 0.00 2.50 0.47 53 1017.4
20260502191530 75 341 6.0 9.0 0.00 2.50 0.47 55 1017.4
20260502190537 75 356 5.0 9.0 0.00 2.50 0.47 56 1017.4
20260502185526 75 338 6.0 10.0 0.00 2.50 0.47 54 1017.4
20260502184534 75 340 7.0 11.0 0.00 2.50 0.47 55 1017.4
20260502183544 75 20 5.0 8.0 0.00 2.50 0.47 56 1017.4
20260502182531 74 343 6.0 10.0 0.00 2.51 0.47 57 1017.5
20260502181521 73 23 5.0 9.0 0.00 2.55 0.47 58 1017.6
20260502180531 73 4 7.0 11.0 0.00 2.56 0.47 58 1017.6
20260502163526 70 352 5.0 9.0 0.00 2.56 0.47 66 1018.2
20260502162534 69 1 5.0 8.0 0.00 2.56 0.47 66 1018.3
20260502161545 69 23 5.0 8.0 0.00 2.56 0.47 67 1018.2
20260502160552 68 16 5.0 7.0 0.00 2.56 0.47 69 1018.2
20260502151534 65 2 4.0 7.0 0.00 2.56 0.47 73 1018.2
20260502150523 64 42 4.0 6.0 0.00 2.56 0.47 75 1018.2
20260502130526 58 65 3.0 9.0 0.00 2.56 0.47 82 1016.8
20260502123551 57 327 5.0 10.0 0.00 2.56 0.47 82 1016.2
20260502122521 57 52 4.0 9.0 0.00 2.56 0.47 85 1016.2
20260502121529 57 6 5.0 8.0 0.00 2.56 0.47 87 1016.1
20260502120536 57 8 4.0 7.0 0.00 2.56 0.47 88 1016.0
20260502115528 57 329 4.0 6.0 0.00 2.56 0.47 89 1015.8
20260502114536 57 16 5.0 8.0 0.00 2.56 0.47 89 1015.8
20260502113523 57 5 5.0 9.0 0.00 2.56 0.47 90 1015.5
20260502112551 57 51 4.0 8.0 0.00 2.56 0.47 91 1015.3
20260502111520 57 7 4.0 7.0 0.00 2.56 0.47 91 1015.1
20260502110530 57 354 4.0 8.0 0.00 2.56 0.47 92 1014.9
20260502105538 57 23 5.0 7.0 0.00 2.56 0.47 92 1014.8
20260502104605 57 20 4.0 8.0 0.01 2.56 0.47 92 1014.7
20260502103534 57 4 4.0 6.0 0.01 2.56 0.47 92 1014.5
20260502102523 57 19 4.0 7.0 0.01 2.56 0.47 92 1014.6
20260502101551 57 324 6.0 9.0 0.01 2.56 0.47 93 1014.5
20260502100520 56 341 4.0 9.0 0.01 2.56 0.47 93 1014.5
20260502091523 56 20 3.0 4.0 0.00 2.55 0.46 95 1014.4
20260502090531 56 6 3.0 8.0 0.00 2.55 0.46 95 1014.0
20260502071524 57 335 4.0 8.0 0.06 2.45 0.36 96 1014.0
20260502070742 0 293 4.0 4.0 0.03 2.42 0.33 1014.0
20260502070533 58 41 4.0 7.0 0.03 2.42 0.33 96 1013.6
20260502065602 58 18 3.0 5.0 0.02 2.40 0.31 96 1013.7
20260502064531 57 354 4.0 5.0 0.06 2.39 0.30 96 1014.0
20260502063520 57 5 5.0 8.0 0.21 2.39 0.30 96 1014.1
20260502062528 58 0 5.0 8.0 0.23 2.39 0.30 96 1014.2
20260502060605 58 346 3.0 5.0 0.27 2.39 0.30 96 1013.6
20260502055532 59 2 3.0 4.0 0.29 2.38 0.29 96 1014.3
20260502054522 59 104 1.0 4.0 0.26 2.33 0.24 96 1014.3
20260502053531 59 80 3.0 4.0 0.12 2.18 0.09 96 1013.8
20260502052519 59 30 3.0 5.0 0.11 2.16 0.07 96 1013.8
20260502051528 59 43 2.0 5.0 0.07 2.12 0.03 96 1014.6
20260502050535 59 356 2.0 4.0 0.07 2.12 0.03 96 1013.7
20260502045526 59 1 1.0 4.0 0.04 2.09 2.09 96 1014.0
20260502044534 59 9 1.0 7.0 0.03 2.07 2.07 96 1013.4
20260502043523 59 81 2.0 7.0 0.06 2.06 2.06 96 1013.3
20260502042530 59 43 2.0 5.0 0.07 2.05 2.05 96 1013.0
20260502041522 59 344 5.0 9.0 0.08 2.05 2.05 96 1013.2
20260502040548 59 356 2.0 4.0 0.08 2.05 2.05 96 1013.0
20260502035536 59 51 3.0 10.0 0.08 2.05 2.05 96 1013.5
20260502034526 59 3 2.0 5.0 0.07 2.04 2.04 96 1014.1
20260502033533 59 14 2.0 3.0 0.03 2.00 2.00 95 1014.1
20260502032545 59 114 2.0 5.0 0.01 1.98 1.98 95 1013.8
20260502031530 58 3 4.0 7.0 0.00 1.97 1.97 95 1013.3
20260502030520 58 62 3.0 7.0 0.00 1.97 1.97 95 1013.7
20260502025528 58 22 3.0 6.0 0.00 1.97 1.97 95 1013.4
20260502024536 58 48 4.0 8.0 0.01 1.97 1.97 95 1013.3
20260502023526 58 21 3.0 6.0 0.01 1.97 1.97 95 1013.3
20260502022555 58 60 3.0 8.0 0.01 1.97 1.97 95 1012.9
20260502021523 58 82 1.0 5.0 0.02 1.97 1.97 95 1012.7
20260502020551 59 43 3.0 5.0 0.03 1.97 1.97 95 1012.8
20260502015520 59 32 3.0 9.0 0.03 1.97 1.97 95 1012.8
20260502014529 59 14 3.0 7.0 0.02 1.96 1.96 95 1012.9
20260502013557 59 79 3.0 8.0 0.02 1.96 1.96 95 1013.5
20260502012545 59 21 2.0 6.0 0.05 1.96 1.96 95 1013.3
20260502011533 59 17 3.0 5.0 0.09 1.95 1.95 95 1013.3
20260502010523 59 15 1.0 4.0 0.17 1.94 1.94 95 1013.6
20260502005551 59 344 3.0 5.0 0.18 1.94 1.94 95 1013.4
20260502004520 59 19 3.0 4.0 0.19 1.94 1.94 95 1013.1
20260502003528 59 77 3.0 6.0 0.24 1.94 1.94 95 1013.1
20260502002536 59 3 3.0 6.0 0.27 1.91 1.91 95 1013.0
20260502001526 59 10 3.0 4.0 0.28 1.86 1.86 95 1012.8
20260502000534 59 348 3.0 5.0 0.21 1.77 1.77 94 1012.3
20260501235523 59 341 5.0 8.0 0.20 1.77 1.76 94 1012.0
20260501234532 59 28 4.0 5.0 0.19 1.76 1.75 94 1012.7
20260501233522 59 3 4.0 7.0 0.14 1.74 1.70 94 1012.8
20260501232529 59 20 3.0 5.0 0.08 1.68 1.64 94 1012.6
20260501231537 60 352 4.0 8.0 0.02 1.66 1.58 94 1012.2
20260501230525 60 50 3.0 5.0 0.00 1.67 1.56 94 1012.2
20260501225537 60 12 4.0 7.0 0.00 1.70 1.56 94 1012.0
20260501224524 60 23 4.0 7.0 0.00 1.74 1.56 94 1012.0
20260501223531 61 1 5.0 7.0 0.00 1.88 1.56 94 1012.4
20260501222520 61 18 6.0 10.0 0.02 1.90 1.56 94 1012.7
20260501221528 61 1 5.0 8.0 0.11 1.94 1.56 94 1012.6
20260501220536 62 16 4.0 7.0 0.11 1.98 1.56 95 1011.9
20260501215527 63 39 4.0 6.0 0.15 2.04 1.56 95 1011.8
20260501214533 63 23 5.0 7.0 0.21 2.13 1.56 95 1012.2
20260501213543 63 354 4.0 8.0 0.25 2.23 1.56 95 1012.9
20260501212531 62 11 4.0 7.0 0.34 2.26 1.54 95 1012.1
20260501211521 62 12 4.0 6.0 0.31 2.17 1.45 95 1013.0
20260501210528 63 49 4.0 6.0 0.59 2.17 1.45 95 1012.7
20260501205559 63 31 4.0 7.0 1.14 2.13 1.41 95 1013.3
20260501204526 63 43 4.0 7.0 1.20 2.07 1.35 95 1012.4
20260501203533 63 2 4.0 7.0 1.19 2.03 1.31 95 1012.8